Tracking 35274 objects as of 10-Sep-2026
HD Live streaming from Space Station
objects crossing your sky now

SL-6 R/B(1)


SL-6 R/B(1) is no longer on orbit


NORAD ID: 19542
Int'l Code: 1988-090B
Launch date: September 29, 1988
Source: Commonwealth of Independent States (former USSR) (CIS)
Launch site: PLESETSK MISSILE AND SPACE COMPLEX (PKMTR)
Decay date: 1988-10-29

Note: This is a ROCKET BODY
Your satellite tracking list
Your tracking list is empty




NASA's NSSDC Master Catalog

Two Line Element Set (TLE):
1 19542U 88090  B 88300.04830404  .02293521 +36700-4 +11285-2 0  9991
2 19542 062.8263 353.8569 0098140 119.9336 241.1630 16.09876631004214
Source of the keplerian elements: AFSPC